This is the latest recevied weather packets stored in our database for station/object N8BAP. If no packets are shown the sender has not sent any weather packets the latest 10 day(s).
| Time | Temp. | Humidity | Pressure | Rain* | Wind** | Luminosity | Snow |
|---|---|---|---|---|---|---|---|
| 1778125511 | 6.11° C | 93% | 1019.8 hPa | 0 mm | - | 0 W/m² | - |
| 1778125210 | 6.67° C | 92% | 1019.8 hPa | 0 mm | - | 0 W/m² | - |
| 1778124907 | 6.67° C | 92% | 1019.6 hPa | 0 mm | - | 0 W/m² | - |
| 1778124604 | 6.67° C | 92% | 1019.7 hPa | 0 mm | - | 0 W/m² | - |
| 1778124301 | 6.67° C | 91% | 1019.6 hPa | 0 mm | - | 0 W/m² | - |
| 1778123997 | 6.67° C | 91% | 1019.6 hPa | 0 mm | - | 0 W/m² | - |
| 1778123693 | 6.67° C | 90% | 1019.9 hPa | 0 mm | - | 0 W/m² | - |
| 1778123390 | 6.67° C | 90% | 1019.8 hPa | 0 mm | - | 0 W/m² | - |
| 1778123087 | 6.67° C | 90% | 1019.8 hPa | 0 mm | - | 0 W/m² | - |
| 1778122785 | 6.67° C | 90% | 1020.1 hPa | 0 mm | - | 0 W/m² | - |
| 1778122482 | 6.67° C | 89% | 1019.7 hPa | 0 mm | - | 0 W/m² | - |
| 1778122180 | 6.67° C | 88% | 1019.8 hPa | 0 mm | - | 0 W/m² | - |
| 1778121877 | 6.67° C | 86% | 1019.9 hPa | 0 mm | - | 0 W/m² | - |
| 1778121572 | 7.22° C | 85% | 1019.8 hPa | 0 mm | - | 0 W/m² | - |
| 1778121269 | 7.78° C | 84% | 1019.9 hPa | 0 mm | - | 0 W/m² | - |
| 1778120966 | 7.78° C | 83% | 1019.7 hPa | 0 mm | - | 0 W/m² | - |
| 1778120664 | 8.33° C | 81% | 1019.8 hPa | 0 mm | - | 0 W/m² | - |
| 1778120359 | 8.33° C | 80% | 1019.7 hPa | 0 mm | - | 0 W/m² | - |
| 1778120054 | 8.89° C | 79% | 1019.7 hPa | 0 mm | - | 0 W/m² | - |
| 1778119753 | 9.44° C | 78% | 1019.6 hPa | 0 mm | - | 0 W/m² | - |
| 1778119449 | 9.44° C | 77% | 1019.7 hPa | 0 mm | - | 0 W/m² | - |
| 1778119146 | 8.89° C | 78% | 1019.7 hPa | 0 mm | - | 0 W/m² | - |
| 1778118844 | 9.44° C | 77% | 1019.5 hPa | 0 mm | - | 0 W/m² | - |
| 1778118541 | 9.44° C | 77% | 1019.4 hPa | 0 mm | - | 0 W/m² | - |
| 1778118236 | 9.44° C | 75% | 1019.2 hPa | 0 mm | - | 0 W/m² | - |
* Rain latest hour (hover to see other rain measurements)
** Current wind speed in m/s (hover to see current wind gust speed)